| time (UTC) | temp F | wind direction | speed MPH | gust MPH | rain 1hr in | rain 24hr in | rain mn in | humidity % | barometer mb |
| 20260831234508 | 56 | 337 | 0.0 | 0.0 | 0.00 | 0.00 | 0.00 | 83 | 1006.2 |
| 20260831234206 | 56 | 225 | 0.0 | 0.0 | 0.00 | 0.00 | 0.00 | 83 | 1006.2 |
| 20260831233905 | 56 | 337 | 0.0 | 0.0 | 0.00 | 0.00 | 0.00 | 83 | 1006.2 |
| 20260831233606 | 56 | 225 | 0.0 | 0.0 | 0.00 | 0.00 | 0.00 | 83 | 1006.0 |
| 20260831233306 | 56 | 225 | 0.0 | 0.0 | 0.00 | 0.00 | 0.00 | 83 | 1006.0 |
| 20260831233005 | 56 | 225 | 0.0 | 0.0 | 0.00 | 0.00 | 0.00 | 83 | 1006.2 |
| 20260831232708 | 56 | 225 | 0.0 | 0.0 | 0.00 | 0.00 | 0.00 | 83 | 1006.2 |
| 20260831232406 | 56 | 225 | 0.0 | 0.0 | 0.00 | 0.00 | 0.00 | 83 | 1006.2 |
| 20260831232105 | 56 | 225 | 0.0 | 0.0 | 0.00 | 0.00 | 0.00 | 83 | 1006.2 |
| 20260831231805 | 56 | 225 | 0.0 | 0.0 | 0.00 | 0.00 | 0.00 | 83 | 1006.2 |
| 20260831231506 | 56 | 225 | 0.0 | 0.0 | 0.00 | 0.00 | 0.00 | 83 | 1006.2 |
| 20260831231205 | 56 | 225 | 0.0 | 0.0 | 0.00 | 0.00 | 0.00 | 83 | 1006.2 |
| 20260831230606 | 56 | 225 | 0.0 | 0.0 | 0.00 | 0.00 | 0.00 | 83 | 1006.0 |
| 20260831230305 | 56 | 225 | 0.0 | 0.0 | 0.00 | 0.00 | 0.00 | 83 | 1006.2 |
| 20260831230006 | 56 | 225 | 0.0 | 0.0 | 0.00 | 0.00 | 0.00 | 83 | 1006.0 |
| 20260831225706 | 56 | 225 | 0.0 | 0.0 | 0.00 | 0.00 | 0.00 | 83 | 1006.2 |
| 20260831225406 | 56 | 225 | 0.0 | 0.0 | 0.00 | 0.00 | 0.00 | 83 | 1006.0 |
| 20260831225109 | 56 | 225 | 0.0 | 0.0 | 0.00 | 0.00 | 0.00 | 83 | 1006.0 |
| 20260831224806 | 56 | 225 | 0.0 | 0.0 | 0.00 | 0.00 | 0.00 | 83 | 1006.0 |
| 20260831224506 | 56 | 225 | 0.0 | 0.0 | 0.00 | 0.00 | 0.00 | 83 | 1006.0 |
| 20260831224205 | 56 | 337 | 0.0 | 0.0 | 0.00 | 0.00 | 0.00 | 83 | 1006.2 |
| 20260831223906 | 56 | 337 | 0.0 | 0.0 | 0.00 | 0.00 | 0.00 | 82 | 1006.2 |
| 20260831223605 | 56 | 337 | 0.0 | 0.0 | 0.00 | 0.00 | 0.00 | 82 | 1006.0 |
| 20260831223306 | 56 | 0 | 1.0 | 1.0 | 0.00 | 0.00 | 0.00 | 82 | 1006.0 |
| 20260831223006 | 56 | 225 | 0.0 | 0.0 | 0.00 | 0.00 | 0.00 | 83 | 1006.0 |
| 20260831222706 | 56 | 225 | 0.0 | 0.0 | 0.00 | 0.00 | 0.00 | 82 | 1006.0 |
| 20260831222406 | 56 | 225 | 0.0 | 0.0 | 0.00 | 0.00 | 0.00 | 82 | 1006.2 |
| 20260831222105 | 56 | 225 | 0.0 | 0.0 | 0.00 | 0.00 | 0.00 | 82 | 1006.0 |
| 20260831221809 | 56 | 315 | 0.0 | 0.0 | 0.00 | 0.00 | 0.00 | 82 | 1006.0 |
| 20260831221506 | 56 | 315 | 0.0 | 0.0 | 0.00 | 0.00 | 0.00 | 82 | 1006.0 |
| 20260831221206 | 56 | 315 | 0.0 | 0.0 | 0.00 | 0.00 | 0.00 | 82 | 1006.0 |
| 20260831220905 | 56 | 337 | 0.0 | 0.0 | 0.00 | 0.00 | 0.00 | 82 | 1005.7 |
| 20260831220606 | 56 | 315 | 0.0 | 0.0 | 0.00 | 0.00 | 0.00 | 82 | 1006.0 |
| 20260831220306 | 56 | 315 | 0.0 | 0.0 | 0.00 | 0.00 | 0.00 | 82 | 1006.0 |
| 20260831220009 | 57 | 315 | 0.0 | 0.0 | 0.00 | 0.00 | 0.00 | 82 | 1006.2 |
| 20260831215706 | 57 | 315 | 0.0 | 0.0 | 0.00 | 0.00 | 0.36 | 82 | 1006.0 |
| 20260831215406 | 56 | 315 | 0.0 | 0.0 | 0.00 | 0.00 | 0.36 | 82 | 1006.0 |
| 20260831215105 | 57 | 315 | 0.0 | 0.0 | 0.00 | 0.00 | 0.36 | 81 | 1006.0 |
| 20260831214805 | 57 | 315 | 0.0 | 0.0 | 0.00 | 0.00 | 0.36 | 81 | 1006.0 |
| 20260831214506 | 56 | 315 | 0.0 | 0.0 | 0.00 | 0.00 | 0.36 | 81 | 1006.0 |
| 20260831214206 | 56 | 315 | 0.0 | 0.0 | 0.00 | 0.00 | 0.36 | 81 | 1006.0 |
| 20260831213905 | 56 | 315 | 0.0 | 0.0 | 0.00 | 0.00 | 0.36 | 81 | 1006.0 |
| 20260831213606 | 56 | 315 | 0.0 | 0.0 | 0.00 | 0.00 | 0.36 | 81 | 1006.0 |
| 20260831213306 | 56 | 315 | 0.0 | 0.0 | 0.00 | 0.00 | 0.36 | 81 | 1006.0 |
| 20260831213006 | 56 | 315 | 0.0 | 0.0 | 0.00 | 0.00 | 0.36 | 81 | 1006.0 |
| 20260831212406 | 56 | 315 | 0.0 | 0.0 | 0.00 | 0.00 | 0.36 | 80 | 1006.0 |
| 20260831212106 | 56 | 45 | 0.0 | 0.0 | 0.00 | 0.00 | 0.36 | 80 | 1006.0 |
| 20260831211806 | 56 | 45 | 0.0 | 0.0 | 0.00 | 0.00 | 0.36 | 80 | 1005.7 |
| 20260831211505 | 56 | 315 | 0.0 | 0.0 | 0.00 | 0.00 | 0.36 | 80 | 1005.7 |
| 20260831211206 | 56 | 315 | 0.0 | 0.0 | 0.00 | 0.00 | 0.36 | 80 | 1005.7 |
| 20260831210906 | 56 | 315 | 0.0 | 0.0 | 0.00 | 0.00 | 0.36 | 80 | 1005.7 |
| 20260831210606 | 56 | 315 | 0.0 | 0.0 | 0.00 | 0.00 | 0.36 | 79 | 1005.5 |
| 20260831210306 | 56 | 0 | 0.0 | 0.0 | 0.00 | 0.00 | 0.36 | 79 | 1005.7 |
| 20260831210006 | 56 | 67 | 0.0 | 0.0 | 0.00 | 0.00 | 0.36 | 79 | 1005.5 |
| 20260831205406 | 56 | 90 | 1.0 | 1.0 | 0.00 | 0.00 | 0.36 | 79 | 1005.2 |
| 20260831205107 | 56 | 337 | 0.0 | 0.0 | 0.00 | 0.00 | 0.36 | 79 | 1005.2 |
| 20260831204806 | 56 | 202 | 0.0 | 0.0 | 0.00 | 0.00 | 0.36 | 79 | 1005.2 |
| 20260831204206 | 56 | 202 | 0.0 | 0.0 | 0.00 | 0.00 | 0.36 | 79 | 1005.2 |
| 20260831203905 | 56 | 202 | 0.0 | 0.0 | 0.00 | 0.00 | 0.36 | 78 | 1005.0 |
| 20260831203606 | 56 | 202 | 0.0 | 0.0 | 0.00 | 0.00 | 0.36 | 79 | 1005.2 |
| 20260831203306 | 56 | 202 | 0.0 | 0.0 | 0.00 | 0.00 | 0.36 | 78 | 1004.7 |
| 20260831203006 | 56 | 337 | 0.0 | 0.0 | 0.00 | 0.00 | 0.36 | 78 | 1005.0 |
| 20260831202405 | 56 | 202 | 0.0 | 0.0 | 0.00 | 0.00 | 0.36 | 77 | 1005.2 |
| 20260831202105 | 56 | 292 | 0.0 | 0.0 | 0.00 | 0.00 | 0.36 | 77 | 1005.2 |
| 20260831201806 | 56 | 337 | 0.0 | 0.0 | 0.00 | 0.00 | 0.36 | 77 | 1005.2 |
| 20260831201207 | 56 | 337 | 0.0 | 0.0 | 0.00 | 0.00 | 0.36 | 77 | 1005.0 |
| 20260831200906 | 56 | 315 | 0.0 | 0.0 | 0.00 | 0.00 | 0.36 | 76 | 1005.0 |
| 20260831200606 | 57 | 315 | 0.0 | 0.0 | 0.00 | 0.00 | 0.36 | 76 | 1005.0 |
| 20260831200306 | 57 | 0 | 0.0 | 0.0 | 0.00 | 0.00 | 0.36 | 76 | 1005.0 |
| 20260831200007 | 57 | 315 | 1.0 | 1.0 | 0.00 | 0.00 | 0.36 | 77 | 1005.2 |
| 20260831195706 | 57 | 0 | 2.0 | 2.0 | 0.00 | 0.00 | 0.36 | 77 | 1005.0 |
| 20260831195405 | 58 | 337 | 2.0 | 2.0 | 0.00 | 0.00 | 0.36 | 78 | 1005.0 |
| 20260831195107 | 58 | 315 | 1.0 | 1.0 | 0.00 | 0.00 | 0.36 | 78 | 1004.7 |
| 20260831194805 | 58 | 315 | 3.0 | 3.0 | 0.00 | 0.00 | 0.36 | 78 | 1004.7 |
| 20260831194206 | 59 | 292 | 4.0 | 4.0 | 0.00 | 0.00 | 0.36 | 78 | 1005.0 |
| 20260831193906 | 59 | 337 | 4.0 | 4.0 | 0.00 | 0.00 | 0.36 | 79 | 1005.0 |
| 20260831193605 | 58 | 22 | 8.0 | 8.0 | 0.00 | 0.00 | 0.36 | 80 | 1004.7 |
| 20260831193306 | 58 | 0 | 3.0 | 3.0 | 0.00 | 0.00 | 0.36 | 79 | 1005.0 |
| 20260831193009 | 58 | 0 | 3.0 | 4.0 | 0.00 | 0.00 | 0.36 | 77 | 1004.7 |
| 20260831192706 | 58 | 0 | 2.0 | 2.0 | 0.00 | 0.00 | 0.36 | 77 | 1004.7 |
| 20260831192406 | 58 | 337 | 1.0 | 1.0 | 0.00 | 0.00 | 0.36 | 77 | 1004.5 |
| 20260831192106 | 58 | 315 | 0.0 | 0.0 | 0.00 | 0.00 | 0.36 | 77 | 1004.7 |
| 20260831191805 | 58 | 337 | 2.0 | 2.0 | 0.00 | 0.00 | 0.36 | 77 | 1004.5 |
| 20260831191508 | 59 | 0 | 3.0 | 3.0 | 0.00 | 0.00 | 0.36 | 77 | 1004.7 |
| 20260831191206 | 59 | 0 | 2.0 | 2.0 | 0.00 | 0.00 | 0.36 | 77 | 1004.5 |
| 20260831190906 | 59 | 337 | 3.0 | 3.0 | 0.00 | 0.00 | 0.36 | 77 | 1004.5 |
| 20260831190605 | 59 | 0 | 2.0 | 2.0 | 0.00 | 0.00 | 0.36 | 76 | 1004.5 |
| 20260831190306 | 59 | 337 | 0.0 | 0.0 | 0.00 | 0.00 | 0.36 | 76 | 1004.2 |
| 20260831185708 | 59 | 337 | 1.0 | 1.0 | 0.00 | 0.00 | 0.36 | 76 | 1004.2 |
| 20260831185406 | 59 | 270 | 1.0 | 1.0 | 0.00 | 0.00 | 0.36 | 75 | 1004.2 |
| 20260831185106 | 59 | 337 | 0.0 | 0.0 | 0.00 | 0.00 | 0.36 | 75 | 1004.2 |
| 20260831184805 | 59 | 225 | 2.0 | 2.0 | 0.00 | 0.00 | 0.36 | 75 | 1004.0 |
| 20260831184506 | 59 | 270 | 2.0 | 2.0 | 0.00 | 0.00 | 0.36 | 75 | 1004.0 |
| 20260831184206 | 59 | 292 | 0.0 | 0.0 | 0.00 | 0.00 | 0.36 | 74 | 1004.2 |
| 20260831183905 | 59 | 315 | 2.0 | 2.0 | 0.00 | 0.00 | 0.34 | 74 | 1004.2 |
| 20260831183606 | 59 | 270 | 2.0 | 2.0 | 0.00 | 0.00 | 0.34 | 73 | 1004.2 |
| 20260831183306 | 59 | 180 | 2.0 | 2.0 | 0.00 | 0.00 | 0.34 | 73 | 1004.2 |
| 20260831183005 | 59 | 292 | 2.0 | 2.0 | 0.00 | 0.00 | 0.34 | 73 | 1004.2 |
| 20260831182707 | 60 | 292 | 10.0 | 10.0 | 0.00 | 0.00 | 0.34 | 73 | 1004.5 |
| 20260831182106 | 63 | 292 | 8.0 | 8.0 | 0.00 | 0.00 | 0.29 | 74 | 1004.5 |
| 20260831181806 | 63 | 292 | 4.0 | 4.0 | 0.00 | 0.00 | 0.29 | 72 | 1003.5 |
| 20260831181506 | 63 | 225 | 3.0 | 3.0 | 0.00 | 0.00 | 0.29 | 72 | 1003.3 |
| 20260831181205 | 63 | 202 | 4.0 | 4.0 | 0.00 | 0.00 | 0.29 | 71 | 1003.3 |
| 20260831180909 | 63 | 180 | 2.0 | 2.0 | 0.00 | 0.00 | 0.29 | 71 | 1003.3 |
| 20260831180606 | 63 | 225 | 3.0 | 3.0 | 0.00 | 0.00 | 0.29 | 71 | 1003.3 |
| 20260831180305 | 63 | 337 | 0.0 | 0.0 | 0.00 | 0.00 | 0.29 | 71 | 1003.0 |
| 20260831180006 | 63 | 225 | 1.0 | 1.0 | 0.00 | 0.00 | 0.29 | 71 | 1003.0 |
| 20260831175706 | 63 | 180 | 0.0 | 0.0 | 0.00 | 0.00 | 0.29 | 71 | 1002.5 |
| 20260831175105 | 63 | 202 | 2.0 | 2.0 | 0.00 | 0.00 | 0.29 | 71 | 1002.8 |
| 20260831174805 | 64 | 315 | 0.0 | 0.0 | 0.00 | 0.00 | 0.29 | 70 | 1002.8 |
| 20260831174506 | 64 | 337 | 0.0 | 0.0 | 0.00 | 0.00 | 0.29 | 70 | 1002.8 |
| 20260831174209 | 64 | 202 | 1.0 | 1.0 | 0.00 | 0.00 | 0.29 | 70 | 1002.8 |
| 20260831173906 | 65 | 180 | 0.0 | 0.0 | 0.00 | 0.00 | 0.29 | 70 | 1002.5 |
| 20260831173305 | 65 | 292 | 1.0 | 1.0 | 0.00 | 0.00 | 0.29 | 69 | 1002.5 |
| 20260831173005 | 65 | 270 | 0.0 | 0.0 | 0.00 | 0.00 | 0.29 | 69 | 1002.3 |
| 20260831172706 | 65 | 270 | 0.0 | 0.0 | 0.00 | 0.00 | 0.29 | 69 | 1002.3 |
| 20260831172405 | 65 | 270 | 0.0 | 0.0 | 0.00 | 0.00 | 0.29 | 69 | 1002.3 |
| 20260831172105 | 65 | 270 | 1.0 | 1.0 | 0.00 | 0.00 | 0.29 | 68 | 1002.5 |
| 20260831171808 | 66 | 337 | 2.0 | 2.0 | 0.00 | 0.00 | 0.29 | 68 | 1002.5 |
| 20260831171505 | 66 | 337 | 2.0 | 2.0 | 0.00 | 0.00 | 0.29 | 68 | 1002.8 |
| 20260831171206 | 66 | 270 | 3.0 | 3.0 | 0.00 | 0.00 | 0.29 | 68 | 1002.8 |
| 20260831170906 | 66 | 270 | 1.0 | 1.0 | 0.00 | 0.00 | 0.29 | 67 | 1002.8 |
| 20260831170605 | 66 | 270 | 2.0 | 2.0 | 0.00 | 0.00 | 0.29 | 67 | 1002.5 |
| 20260831170306 | 66 | 247 | 2.0 | 2.0 | 0.00 | 0.00 | 0.29 | 66 | 1002.8 |
| 20260831170005 | 67 | 270 | 6.0 | 6.0 | 0.00 | 0.00 | 0.29 | 67 | 1002.5 |
| 20260831165705 | 67 | 337 | 1.0 | 1.0 | 0.00 | 0.00 | 0.29 | 67 | 1002.5 |
| 20260831165407 | 67 | 337 | 3.0 | 3.0 | 0.00 | 0.00 | 0.29 | 67 | 1002.5 |
| 20260831165106 | 67 | 225 | 2.0 | 2.0 | 0.00 | 0.00 | 0.29 | 67 | 1002.5 |
| 20260831164806 | 67 | 270 | 2.0 | 2.0 | 0.00 | 0.00 | 0.29 | 67 | 1002.8 |
| 20260831164206 | 67 | 292 | 2.0 | 2.0 | 0.00 | 0.00 | 0.29 | 67 | 1002.8 |
| 20260831163905 | 66 | 337 | 2.0 | 2.0 | 0.00 | 0.00 | 0.29 | 67 | 1002.8 |
| 20260831163606 | 67 | 315 | 2.0 | 2.0 | 0.00 | 0.00 | 0.29 | 67 | 1002.8 |
| 20260831163305 | 67 | 270 | 3.0 | 3.0 | 0.00 | 0.00 | 0.29 | 67 | 1002.8 |
| 20260831163008 | 67 | 337 | 5.0 | 5.0 | 0.00 | 0.00 | 0.29 | 66 | 1002.8 |
| 20260831162705 | 68 | 270 | 3.0 | 3.0 | 0.00 | 0.00 | 0.29 | 66 | 1002.8 |
| 20260831162406 | 67 | 270 | 1.0 | 1.0 | 0.00 | 0.00 | 0.29 | 65 | 1002.8 |
| 20260831162106 | 67 | 270 | 2.0 | 2.0 | 0.00 | 0.00 | 0.29 | 65 | 1002.8 |
| 20260831161805 | 67 | 247 | 4.0 | 4.0 | 0.00 | 0.00 | 0.29 | 65 | 1002.5 |
| 20260831161206 | 67 | 337 | 5.0 | 5.0 | 0.00 | 0.00 | 0.29 | 64 | 1002.5 |
| 20260831160906 | 68 | 270 | 4.0 | 4.0 | 0.00 | 0.00 | 0.29 | 63 | 1002.8 |
| 20260831160606 | 68 | 225 | 4.0 | 4.0 | 0.00 | 0.00 | 0.29 | 64 | 1002.5 |
| 20260831160305 | 69 | 270 | 5.0 | 5.0 | 0.00 | 0.00 | 0.29 | 64 | 1002.5 |
| 20260831160006 | 70 | 270 | 2.0 | 2.0 | 0.00 | 0.00 | 0.29 | 64 | 1002.5 |
| 20260831155706 | 70 | 270 | 3.0 | 3.0 | 0.00 | 0.00 | 0.29 | 64 | 1002.5 |
| 20260831155406 | 69 | 225 | 7.0 | 7.0 | 0.00 | 0.00 | 0.29 | 64 | 1002.5 |
| 20260831155106 | 69 | 337 | 6.0 | 6.0 | 0.00 | 0.00 | 0.29 | 63 | 1002.5 |
| 20260831154806 | 70 | 225 | 7.0 | 7.0 | 0.00 | 0.00 | 0.29 | 64 | 1002.5 |
| 20260831154205 | 69 | 270 | 4.0 | 4.0 | 0.00 | 0.00 | 0.29 | 63 | 1002.3 |
| 20260831153906 | 70 | 270 | 7.0 | 7.0 | 0.00 | 0.00 | 0.29 | 65 | 1002.3 |
| 20260831153606 | 68 | 270 | 6.0 | 6.0 | 0.00 | 0.00 | 0.29 | 65 | 1002.3 |
| 20260831153305 | 68 | 270 | 3.0 | 3.0 | 0.00 | 0.00 | 0.29 | 67 | 1002.3 |
| 20260831153006 | 70 | 270 | 7.0 | 7.0 | 0.00 | 0.00 | 0.29 | 67 | 1002.5 |
| 20260831152706 | 68 | 337 | 3.0 | 4.0 | 0.00 | 0.00 | 0.29 | 69 | 1002.3 |
| 20260831152406 | 68 | 270 | 5.0 | 5.0 | 0.00 | 0.00 | 0.29 | 70 | 1002.3 |
| 20260831152106 | 67 | 225 | 3.0 | 3.0 | 0.00 | 0.00 | 0.29 | 69 | 1002.5 |
| 20260831151806 | 67 | 270 | 5.0 | 5.0 | 0.00 | 0.00 | 0.29 | 69 | 1002.5 |
| 20260831151206 | 67 | 225 | 6.0 | 6.0 | 0.00 | 0.00 | 0.29 | 69 | 1002.8 |
| 20260831150905 | 68 | 202 | 4.0 | 4.0 | 0.00 | 0.00 | 0.29 | 70 | 1002.8 |
| 20260831150606 | 69 | 225 | 2.0 | 2.0 | 0.00 | 0.00 | 0.29 | 70 | 1002.8 |
| 20260831150306 | 68 | 337 | 6.0 | 6.0 | 0.00 | 0.00 | 0.29 | 70 | 1002.5 |
| 20260831150005 | 67 | 202 | 5.0 | 5.0 | 0.00 | 0.00 | 0.29 | 70 | 1002.8 |
| 20260831145405 | 66 | 247 | 6.0 | 6.0 | 0.00 | 0.00 | 0.29 | 70 | 1002.8 |
| 20260831145105 | 66 | 270 | 4.0 | 4.0 | 0.00 | 0.00 | 0.29 | 70 | 1002.8 |
| 20260831144806 | 66 | 225 | 5.0 | 5.0 | 0.00 | 0.00 | 0.29 | 70 | 1002.8 |
| 20260831144506 | 67 | 202 | 7.0 | 7.0 | 0.00 | 0.00 | 0.29 | 70 | 1002.8 |
| 20260831144205 | 67 | 270 | 4.0 | 4.0 | 0.00 | 0.00 | 0.29 | 69 | 1002.8 |
| 20260831143905 | 68 | 270 | 3.0 | 4.0 | 0.00 | 0.00 | 0.29 | 72 | 1002.5 |
| 20260831143606 | 68 | 225 | 3.0 | 3.0 | 0.00 | 0.00 | 0.29 | 72 | 1002.5 |
| 20260831143306 | 66 | 270 | 4.0 | 4.0 | 0.00 | 0.00 | 0.29 | 72 | 1002.5 |
| 20260831143006 | 66 | 337 | 4.0 | 4.0 | 0.00 | 0.00 | 0.29 | 72 | 1002.8 |
| 20260831142705 | 66 | 270 | 2.0 | 2.0 | 0.00 | 0.00 | 0.29 | 72 | 1002.5 |
| 20260831142106 | 67 | 337 | 0.0 | 0.0 | 0.00 | 0.00 | 0.29 | 73 | 1002.5 |
| 20260831141805 | 67 | 270 | 1.0 | 1.0 | 0.00 | 0.00 | 0.29 | 73 | 1002.8 |
| 20260831141506 | 67 | 202 | 4.0 | 4.0 | 0.00 | 0.00 | 0.29 | 76 | 1002.8 |
| 20260831141205 | 66 | 225 | 1.0 | 1.0 | 0.00 | 0.00 | 0.29 | 75 | 1002.8 |
| 20260831140905 | 65 | 225 | 2.0 | 2.0 | 0.00 | 0.00 | 0.29 | 74 | 1002.8 |
| 20260831140606 | 64 | 270 | 4.0 | 4.0 | 0.00 | 0.00 | 0.29 | 74 | 1003.0 |
| 20260831140306 | 65 | 337 | 4.0 | 4.0 | 0.00 | 0.00 | 0.29 | 74 | 1002.8 |
| 20260831140005 | 64 | 270 | 5.0 | 5.0 | 0.00 | 0.00 | 0.29 | 74 | 1002.8 |
| 20260831135406 | 64 | 270 | 3.0 | 3.0 | 0.00 | 0.00 | 0.29 | 74 | 1003.0 |
| 20260831135106 | 64 | 337 | 4.0 | 4.0 | 0.00 | 0.00 | 0.29 | 73 | 1003.3 |
| 20260831134805 | 64 | 337 | 6.0 | 6.0 | 0.00 | 0.00 | 0.29 | 74 | 1003.3 |
| 20260831134506 | 64 | 180 | 5.0 | 5.0 | 0.00 | 0.00 | 0.29 | 73 | 1003.3 |
| 20260831134206 | 64 | 225 | 2.0 | 2.0 | 0.00 | 0.00 | 0.29 | 74 | 1003.0 |
| 20260831133908 | 64 | 270 | 2.0 | 2.0 | 0.00 | 0.00 | 0.29 | 73 | 1003.0 |
| 20260831133606 | 64 | 270 | 4.0 | 4.0 | 0.00 | 0.00 | 0.29 | 73 | 1003.0 |
| 20260831133305 | 65 | 270 | 5.0 | 5.0 | 0.00 | 0.00 | 0.29 | 73 | 1003.0 |
| 20260831133006 | 65 | 292 | 4.0 | 4.0 | 0.00 | 0.00 | 0.29 | 74 | 1003.0 |
| 20260831132705 | 65 | 270 | 3.0 | 3.0 | 0.00 | 0.00 | 0.29 | 74 | 1003.0 |
| 20260831132406 | 65 | 270 | 6.0 | 6.0 | 0.00 | 0.00 | 0.29 | 73 | 1003.0 |
| 20260831131806 | 64 | 270 | 3.0 | 3.0 | 0.00 | 0.00 | 0.29 | 72 | 1003.3 |
| 20260831131506 | 63 | 247 | 9.0 | 9.0 | 0.00 | 0.00 | 0.29 | 71 | 1003.3 |
| 20260831131206 | 63 | 247 | 5.0 | 5.0 | 0.00 | 0.00 | 0.28 | 69 | 1003.3 |
| 20260831130906 | 63 | 337 | 10.0 | 10.0 | 0.00 | 0.00 | 0.24 | 68 | 1003.0 |
| 20260831130606 | 66 | 270 | 12.0 | 13.0 | 0.00 | 0.00 | 0.12 | 65 | 1003.0 |
| 20260831130305 | 70 | 270 | 5.0 | 5.0 | 0.00 | 0.00 | 0.08 | 58 | 1002.3 |
| 20260831130005 | 70 | 202 | 4.0 | 4.0 | 0.00 | 0.00 | 0.08 | 55 | 1002.3 |
| 20260831125706 | 71 | 270 | 7.0 | 7.0 | 0.00 | 0.00 | 0.08 | 56 | 1002.3 |
| 20260831125406 | 71 | 270 | 4.0 | 4.0 | 0.00 | 0.00 | 0.08 | 55 | 1002.3 |
| 20260831125105 | 71 | 202 | 7.0 | 7.0 | 0.00 | 0.00 | 0.08 | 55 | 1002.3 |
| 20260831124805 | 71 | 225 | 6.0 | 6.0 | 0.00 | 0.00 | 0.08 | 55 | 1002.3 |
| 20260831124509 | 72 | 225 | 4.0 | 4.0 | 0.00 | 0.00 | 0.08 | 54 | 1002.3 |
| 20260831124206 | 73 | 225 | 6.0 | 6.0 | 0.00 | 0.00 | 0.08 | 54 | 1002.3 |
| 20260831123906 | 72 | 225 | 8.0 | 8.0 | 0.00 | 0.00 | 0.08 | 53 | 1002.3 |
| 20260831123606 | 73 | 225 | 10.0 | 10.0 | 0.00 | 0.00 | 0.08 | 54 | 1002.3 |
| 20260831123305 | 74 | 247 | 7.0 | 7.0 | 0.00 | 0.00 | 0.08 | 53 | 1002.3 |
| 20260831123005 | 74 | 337 | 12.0 | 12.0 | 0.00 | 0.00 | 0.08 | 53 | 1002.3 |
| 20260831122708 | 74 | 225 | 12.0 | 12.0 | 0.00 | 0.00 | 0.08 | 56 | 1002.3 |
| 20260831122405 | 73 | 225 | 16.0 | 16.0 | 0.00 | 0.00 | 0.08 | 56 | 1002.3 |
| 20260831122105 | 72 | 270 | 8.0 | 8.0 | 0.00 | 0.00 | 0.08 | 57 | 1002.3 |
| 20260831121806 | 72 | 337 | 4.0 | 4.0 | 0.00 | 0.00 | 0.08 | 56 | 1002.0 |
| 20260831121505 | 72 | 225 | 7.0 | 7.0 | 0.00 | 0.00 | 0.08 | 56 | 1002.3 |
| 20260831120905 | 72 | 292 | 7.0 | 7.0 | 0.00 | 0.00 | 0.08 | 57 | 1002.3 |
| 20260831120605 | 71 | 337 | 4.0 | 4.0 | 0.00 | 0.00 | 0.08 | 59 | 1002.3 |
| 20260831120306 | 70 | 270 | 6.0 | 6.0 | 0.00 | 0.00 | 0.08 | 58 | 1002.3 |
| 20260831115706 | 71 | 270 | 5.0 | 5.0 | 0.00 | 0.00 | 0.08 | 58 | 1002.3 |
| 20260831115406 | 71 | 225 | 6.0 | 6.0 | 0.00 | 0.00 | 0.08 | 58 | 1002.5 |
| 20260831115106 | 71 | 270 | 14.0 | 15.0 | 0.00 | 0.00 | 0.08 | 57 | 1002.5 |
| 20260831114806 | 71 | 270 | 7.0 | 7.0 | 0.00 | 0.00 | 0.08 | 59 | 1002.5 |
| 20260831114505 | 71 | 225 | 3.0 | 3.0 | 0.00 | 0.00 | 0.08 | 60 | 1002.5 |
| 20260831113906 | 70 | 225 | 8.0 | 8.0 | 0.00 | 0.00 | 0.08 | 61 | 1002.5 |
| 20260831113606 | 71 | 247 | 3.0 | 3.0 | 0.00 | 0.00 | 0.08 | 60 | 1002.5 |
| 20260831113306 | 70 | 315 | 5.0 | 5.0 | 0.00 | 0.00 | 0.08 | 60 | 1002.3 |
| 20260831113006 | 71 | 180 | 8.0 | 8.0 | 0.00 | 0.00 | 0.08 | 60 | 1002.5 |
| 20260831112706 | 70 | 225 | 7.0 | 7.0 | 0.00 | 0.00 | 0.08 | 60 | 1002.5 |
| 20260831112405 | 70 | 202 | 11.0 | 11.0 | 0.00 | 0.00 | 0.08 | 60 | 1002.5 |
| 20260831112106 | 71 | 337 | 9.0 | 9.0 | 0.00 | 0.00 | 0.08 | 59 | 1002.5 |
| 20260831111806 | 71 | 225 | 14.0 | 14.0 | 0.00 | 0.00 | 0.08 | 61 | 1002.5 |
| 20260831111508 | 70 | 225 | 2.0 | 2.0 | 0.00 | 0.00 | 0.08 | 61 | 1002.5 |
| 20260831111205 | 70 | 337 | 8.0 | 8.0 | 0.00 | 0.00 | 0.08 | 61 | 1002.5 |
| 20260831110906 | 70 | 270 | 8.0 | 8.0 | 0.00 | 0.00 | 0.08 | 61 | 1002.5 |
| 20260831110606 | 70 | 225 | 4.0 | 4.0 | 0.00 | 0.00 | 0.08 | 60 | 1002.8 |
| 20260831110006 | 71 | 270 | 10.0 | 10.0 | 0.00 | 0.00 | 0.08 | 60 | 1002.5 |
| 20260831105705 | 72 | 270 | 7.0 | 7.0 | 0.00 | 0.00 | 0.08 | 61 | 1002.5 |
| 20260831105406 | 72 | 337 | 12.0 | 12.0 | 0.00 | 0.00 | 0.08 | 60 | 1002.3 |
| 20260831105105 | 71 | 337 | 14.0 | 14.0 | 0.00 | 0.00 | 0.08 | 61 | 1002.3 |
| 20260831104809 | 71 | 225 | 10.0 | 10.0 | 0.00 | 0.00 | 0.08 | 63 | 1002.5 |
| 20260831104505 | 70 | 225 | 7.0 | 7.0 | 0.00 | 0.00 | 0.08 | 61 | 1002.3 |
| 20260831104205 | 71 | 247 | 11.0 | 11.0 | 0.00 | 0.00 | 0.08 | 61 | 1002.3 |
| 20260831103906 | 71 | 292 | 8.0 | 8.0 | 0.00 | 0.00 | 0.08 | 63 | 1002.3 |
| 20260831103605 | 72 | 202 | 3.0 | 3.0 | 0.00 | 0.00 | 0.08 | 66 | 1002.5 |
| 20260831103306 | 71 | 202 | 17.0 | 17.0 | 0.00 | 0.00 | 0.08 | 64 | 1002.5 |
| 20260831102705 | 71 | 202 | 7.0 | 7.0 | 0.00 | 0.00 | 0.08 | 66 | 1002.3 |
| 20260831102405 | 70 | 270 | 7.0 | 7.0 | 0.00 | 0.00 | 0.08 | 67 | 1002.5 |
| 20260831102106 | 70 | 270 | 6.0 | 6.0 | 0.00 | 0.00 | 0.08 | 69 | 1002.5 |
| 20260831101805 | 68 | 225 | 14.0 | 14.0 | 0.00 | 0.00 | 0.08 | 68 | 1002.5 |
| 20260831101509 | 69 | 337 | 12.0 | 12.0 | 0.00 | 0.00 | 0.08 | 69 | 1002.5 |
| 20260831101205 | 70 | 270 | 8.0 | 8.0 | 0.00 | 0.00 | 0.08 | 71 | 1002.5 |
| 20260831100905 | 68 | 247 | 10.0 | 10.0 | 0.00 | 0.00 | 0.08 | 69 | 1002.5 |
| 20260831100606 | 68 | 225 | 4.0 | 4.0 | 0.00 | 0.00 | 0.08 | 69 | 1002.8 |
| 20260831100306 | 66 | 225 | 6.0 | 6.0 | 0.00 | 0.00 | 0.08 | 69 | 1002.8 |
| 20260831100009 | 67 | 225 | 4.0 | 4.0 | 0.00 | 0.00 | 0.08 | 69 | 1002.8 |
| 20260831095706 | 67 | 225 | 6.0 | 6.0 | 0.00 | 0.00 | 0.08 | 69 | 1002.8 |
| 20260831095406 | 68 | 337 | 6.0 | 6.0 | 0.00 | 0.00 | 0.08 | 71 | 1002.8 |
| 20260831095105 | 68 | 225 | 4.0 | 4.0 | 0.00 | 0.00 | 0.08 | 72 | 1002.8 |
| 20260831094806 | 66 | 270 | 6.0 | 6.0 | 0.00 | 0.00 | 0.08 | 72 | 1002.8 |
| 20260831094508 | 66 | 225 | 16.0 | 16.0 | 0.00 | 0.00 | 0.08 | 72 | 1002.8 |
| 20260831094205 | 66 | 270 | 8.0 | 8.0 | 0.00 | 0.00 | 0.08 | 72 | 1002.8 |
| 20260831093905 | 66 | 270 | 9.0 | 9.0 | 0.00 | 0.00 | 0.08 | 72 | 1002.8 |
| 20260831093605 | 66 | 225 | 9.0 | 9.0 | 0.00 | 0.00 | 0.08 | 73 | 1002.8 |
| 20260831093306 | 67 | 270 | 7.0 | 8.0 | 0.00 | 0.00 | 0.08 | 73 | 1002.8 |
| 20260831092706 | 66 | 225 | 8.0 | 8.0 | 0.00 | 0.00 | 0.08 | 76 | 1002.5 |
| 20260831092405 | 66 | 247 | 7.0 | 7.0 | 0.00 | 0.00 | 0.08 | 77 | 1002.8 |
| 20260831092105 | 66 | 270 | 8.0 | 8.0 | 0.00 | 0.00 | 0.08 | 76 | 1002.8 |
| 20260831091806 | 66 | 202 | 10.0 | 10.0 | 0.00 | 0.00 | 0.08 | 78 | 1002.8 |
| 20260831091506 | 65 | 225 | 10.0 | 10.0 | 0.00 | 0.00 | 0.08 | 77 | 1002.8 |
| 20260831091206 | 66 | 337 | 4.0 | 4.0 | 0.00 | 0.00 | 0.08 | 77 | 1002.8 |
| 20260831090906 | 66 | 337 | 5.0 | 5.0 | 0.00 | 0.00 | 0.08 | 77 | 1002.5 |
| 20260831090606 | 66 | 270 | 12.0 | 12.0 | 0.00 | 0.00 | 0.08 | 78 | 1002.5 |
| 20260831090306 | 66 | 225 | 8.0 | 8.0 | 0.00 | 0.00 | 0.08 | 80 | 1002.5 |
| 20260831090006 | 66 | 225 | 6.0 | 6.0 | 0.00 | 0.00 | 0.08 | 80 | 1002.5 |
| 20260831085708 | 65 | 202 | 7.0 | 7.0 | 0.00 | 0.00 | 0.08 | 79 | 1002.5 |
| 20260831085406 | 65 | 225 | 8.0 | 8.0 | 0.00 | 0.00 | 0.08 | 79 | 1002.5 |
| 20260831085106 | 66 | 225 | 5.0 | 5.0 | 0.00 | 0.00 | 0.08 | 81 | 1002.5 |
| 20260831084806 | 65 | 180 | 3.0 | 3.0 | 0.00 | 0.00 | 0.08 | 81 | 1002.3 |
| 20260831084509 | 66 | 180 | 7.0 | 7.0 | 0.00 | 0.00 | 0.08 | 82 | 1002.3 |
| 20260831084206 | 66 | 337 | 5.0 | 5.0 | 0.00 | 0.00 | 0.08 | 84 | 1002.3 |
| 20260831083905 | 66 | 225 | 5.0 | 5.0 | 0.00 | 0.00 | 0.08 | 85 | 1002.3 |
| 20260831083607 | 66 | 292 | 4.0 | 4.0 | 0.00 | 0.00 | 0.08 | 84 | 1002.3 |
| 20260831083306 | 66 | 270 | 6.0 | 6.0 | 0.00 | 0.00 | 0.08 | 86 | 1002.3 |
| 20260831083008 | 65 | 225 | 7.0 | 7.0 | 0.00 | 0.00 | 0.08 | 86 | 1002.3 |
| 20260831082705 | 65 | 270 | 7.0 | 7.0 | 0.00 | 0.00 | 0.08 | 87 | 1002.3 |
| 20260831082405 | 64 | 202 | 1.0 | 1.0 | 0.00 | 0.00 | 0.08 | 87 | 1002.3 |
| 20260831082106 | 64 | 337 | 3.0 | 3.0 | 0.00 | 0.00 | 0.08 | 87 | 1002.3 |
| 20260831081806 | 63 | 225 | 4.0 | 4.0 | 0.00 | 0.00 | 0.08 | 87 | 1002.0 |
| 20260831081508 | 63 | 337 | 5.0 | 5.0 | 0.00 | 0.00 | 0.08 | 88 | 1002.3 |
| 20260831081205 | 63 | 270 | 5.0 | 5.0 | 0.00 | 0.00 | 0.08 | 88 | 1002.3 |
| 20260831080905 | 64 | 270 | 2.0 | 2.0 | 0.00 | 0.00 | 0.08 | 88 | 1002.0 |
| 20260831080605 | 63 | 270 | 1.0 | 1.0 | 0.00 | 0.00 | 0.08 | 88 | 1002.3 |
| 20260831080005 | 63 | 270 | 3.0 | 3.0 | 0.00 | 0.00 | 0.08 | 88 | 1002.0 |
| 20260831075706 | 62 | 315 | 0.0 | 0.0 | 0.00 | 0.00 | 0.08 | 88 | 1002.0 |
| 20260831075406 | 63 | 225 | 3.0 | 3.0 | 0.00 | 0.00 | 0.08 | 89 | 1002.0 |
| 20260831074806 | 62 | 270 | 4.0 | 4.0 | 0.00 | 0.00 | 0.08 | 89 | 1001.8 |
| 20260831074505 | 61 | 270 | 2.0 | 2.0 | 0.00 | 0.00 | 0.08 | 89 | 1001.8 |
| 20260831074206 | 61 | 270 | 1.0 | 1.0 | 0.00 | 0.00 | 0.08 | 89 | 1001.8 |
| 20260831073906 | 61 | 225 | 1.0 | 1.0 | 0.00 | 0.00 | 0.08 | 89 | 1001.8 |
| 20260831073306 | 61 | 270 | 4.0 | 4.0 | 0.00 | 0.00 | 0.08 | 89 | 1001.8 |
| 20260831073005 | 61 | 270 | 2.0 | 2.0 | 0.00 | 0.00 | 0.08 | 89 | 1001.8 |
| 20260831072706 | 61 | 270 | 2.0 | 2.0 | 0.00 | 0.00 | 0.08 | 90 | 1001.8 |
| 20260831072405 | 61 | 337 | 4.0 | 4.0 | 0.00 | 0.00 | 0.08 | 90 | 1001.8 |
| 20260831072106 | 61 | 225 | 1.0 | 1.0 | 0.00 | 0.00 | 0.08 | 90 | 1001.8 |
| 20260831071806 | 61 | 270 | 1.0 | 1.0 | 0.00 | 0.00 | 0.08 | 90 | 1001.8 |
| 20260831071505 | 61 | 337 | 0.0 | 0.0 | 0.00 | 0.00 | 0.08 | 89 | 1001.8 |
| 20260831071206 | 61 | 270 | 1.0 | 1.0 | 0.00 | 0.00 | 0.08 | 90 | 1001.5 |
| 20260831070906 | 61 | 225 | 2.0 | 2.0 | 0.00 | 0.00 | 0.08 | 90 | 1001.8 |
| 20260831070306 | 61 | 225 | 1.0 | 1.0 | 0.00 | 0.00 | 0.08 | 90 | 1001.8 |
| 20260831070006 | 61 | 180 | 2.0 | 2.0 | 0.00 | 0.00 | 0.08 | 89 | 1001.5 |
| 20260831065706 | 60 | 225 | 1.0 | 1.0 | 0.00 | 0.00 | 0.08 | 89 | 1001.8 |
| 20260831065406 | 60 | 225 | 0.0 | 0.0 | 0.00 | 0.00 | 0.08 | 89 | 1001.5 |
| 20260831065106 | 60 | 247 | 3.0 | 3.0 | 0.00 | 0.00 | 0.08 | 90 | 1001.5 |
| 20260831064506 | 60 | 225 | 2.0 | 2.0 | 0.00 | 0.00 | 0.08 | 90 | 1001.5 |
| 20260831064205 | 60 | 202 | 1.0 | 1.0 | 0.00 | 0.00 | 0.08 | 89 | 1001.5 |
| 20260831063906 | 60 | 225 | 2.0 | 2.0 | 0.00 | 0.00 | 0.08 | 90 | 1001.5 |
| 20260831063606 | 60 | 247 | 1.0 | 1.0 | 0.00 | 0.00 | 0.08 | 89 | 1001.5 |
| 20260831063305 | 59 | 225 | 2.0 | 2.0 | 0.00 | 0.00 | 0.08 | 90 | 1001.5 |
| 20260831063006 | 59 | 225 | 3.0 | 3.0 | 0.00 | 0.00 | 0.08 | 89 | 1001.8 |
| 20260831062705 | 59 | 225 | 0.0 | 0.0 | 0.00 | 0.00 | 0.08 | 88 | 1001.5 |
| 20260831062406 | 59 | 292 | 0.0 | 0.0 | 0.00 | 0.00 | 0.08 | 88 | 1001.3 |
| 20260831062106 | 59 | 225 | 1.0 | 1.0 | 0.00 | 0.00 | 0.08 | 89 | 1001.3 |
| 20260831061806 | 59 | 225 | 0.0 | 0.0 | 0.00 | 0.00 | 0.08 | 88 | 1001.3 |
| 20260831061205 | 59 | 180 | 0.0 | 0.0 | 0.00 | 0.00 | 0.08 | 87 | 1001.3 |
| 20260831060906 | 59 | 225 | 0.0 | 0.0 | 0.00 | 0.00 | 0.08 | 87 | 1001.3 |
| 20260831060605 | 59 | 337 | 0.0 | 0.0 | 0.00 | 0.00 | 0.08 | 87 | 1001.3 |
| 20260831060306 | 58 | 337 | 0.0 | 0.0 | 0.00 | 0.00 | 0.08 | 88 | 1001.3 |
| 20260831060009 | 58 | 225 | 0.0 | 0.0 | 0.00 | 0.00 | 0.08 | 87 | 1001.3 |
| 20260831055706 | 58 | 225 | 0.0 | 0.0 | 0.00 | 0.00 | 0.08 | 87 | 1001.0 |
| 20260831055405 | 58 | 225 | 0.0 | 0.0 | 0.00 | 0.00 | 0.08 | 87 | 1001.3 |
| 20260831055105 | 58 | 225 | 0.0 | 0.0 | 0.00 | 0.00 | 0.08 | 87 | 1001.3 |
| 20260831054806 | 58 | 225 | 0.0 | 0.0 | 0.00 | 0.00 | 0.08 | 87 | 1001.0 |
| 20260831054505 | 58 | 337 | 0.0 | 0.0 | 0.00 | 0.00 | 0.08 | 87 | 1001.0 |
| 20260831054206 | 58 | 337 | 0.0 | 0.0 | 0.00 | 0.00 | 0.08 | 87 | 1001.0 |
| 20260831053906 | 58 | 337 | 0.0 | 0.0 | 0.00 | 0.00 | 0.08 | 87 | 1001.0 |
| 20260831053606 | 58 | 225 | 0.0 | 0.0 | 0.00 | 0.00 | 0.08 | 88 | 1001.0 |
| 20260831053306 | 58 | 337 | 0.0 | 0.0 | 0.00 | 0.00 | 0.08 | 87 | 1001.0 |
| 20260831053006 | 58 | 225 | 0.0 | 0.0 | 0.00 | 0.00 | 0.08 | 87 | 1000.8 |
| 20260831052705 | 58 | 337 | 0.0 | 0.0 | 0.00 | 0.00 | 0.08 | 88 | 1000.8 |
| 20260831052106 | 58 | 90 | 0.0 | 0.0 | 0.00 | 0.00 | 0.08 | 88 | 1000.8 |
| 20260831051806 | 58 | 90 | 0.0 | 0.0 | 0.00 | 0.00 | 0.08 | 87 | 1000.8 |
| 20260831051505 | 57 | 112 | 0.0 | 0.0 | 0.00 | 0.00 | 0.08 | 87 | 1000.8 |
| 20260831051205 | 57 | 112 | 0.0 | 0.0 | 0.00 | 0.00 | 0.08 | 87 | 1000.8 |
| 20260831050606 | 57 | 112 | 0.0 | 0.0 | 0.00 | 0.00 | 0.08 | 87 | 1000.8 |
| 20260831050306 | 57 | 337 | 0.0 | 0.0 | 0.00 | 0.00 | 0.08 | 87 | 1000.8 |
| 20260831050005 | 57 | 225 | 0.0 | 0.0 | 0.00 | 0.00 | 0.08 | 87 | 1000.8 |
| 20260831045706 | 57 | 225 | 0.0 | 0.0 | 0.00 | 0.00 | 0.08 | 87 | 1000.8 |
| 20260831045407 | 57 | 225 | 0.0 | 0.0 | 0.00 | 0.00 | 0.06 | 87 | 1000.8 |
| 20260831044805 | 57 | 270 | 0.0 | 0.0 | 0.00 | 0.00 | 0.06 | 87 | 1000.5 |
| 20260831044506 | 57 | 225 | 0.0 | 0.0 | 0.00 | 0.00 | 0.06 | 87 | 1000.5 |
| 20260831044205 | 57 | 337 | 1.0 | 1.0 | 0.00 | 0.00 | 0.04 | 87 | 1000.5 |
| 20260831043906 | 57 | 337 | 2.0 | 2.0 | 0.00 | 0.00 | 0.04 | 87 | 1000.5 |
| 20260831043608 | 57 | 315 | 3.0 | 3.0 | 0.00 | 0.00 | 0.04 | 87 | 1000.5 |
| 20260831043309 | 57 | 270 | 2.0 | 2.0 | 0.00 | 0.00 | 0.04 | 88 | 1000.5 |
| 20260831043006 | 57 | 225 | 2.0 | 2.0 | 0.00 | 0.00 | 0.04 | 88 | 1000.3 |
| 20260831042706 | 57 | 90 | 0.0 | 0.0 | 0.00 | 0.00 | 0.04 | 88 | 1000.3 |
| 20260831042408 | 57 | 90 | 0.0 | 0.0 | 0.00 | 0.00 | 0.04 | 87 | 1000.3 |
| 20260831042106 | 57 | 112 | 0.0 | 0.0 | 0.00 | 0.00 | 0.04 | 88 | 1000.3 |
| 20260831041806 | 57 | 90 | 1.0 | 1.0 | 0.00 | 0.00 | 0.04 | 88 | 1000.3 |
| 20260831041506 | 57 | 90 | 0.0 | 0.0 | 0.00 | 0.00 | 0.04 | 87 | 1000.3 |
| 20260831041205 | 57 | 90 | 1.0 | 1.0 | 0.00 | 0.00 | 0.04 | 87 | 1000.3 |
| 20260831040905 | 57 | 337 | 2.0 | 2.0 | 0.00 | 0.00 | 0.04 | 86 | 1000.3 |
| 20260831040305 | 56 | 90 | 1.0 | 1.0 | 0.00 | 0.00 | 0.04 | 86 | 1000.3 |
| 20260831040006 | 57 | 90 | 2.0 | 2.0 | 0.00 | 0.00 | 0.04 | 86 | 1000.3 |
| 20260831035706 | 57 | 90 | 2.0 | 2.0 | 0.00 | 0.00 | 0.04 | 86 | 1000.3 |
| 20260831035405 | 57 | 90 | 1.0 | 1.0 | 0.00 | 0.00 | 0.04 | 86 | 1000.3 |
| 20260831034806 | 57 | 337 | 1.0 | 1.0 | 0.00 | 0.00 | 0.04 | 86 | 1000.3 |
| 20260831034506 | 57 | 112 | 1.0 | 1.0 | 0.00 | 0.00 | 0.04 | 86 | 1000.3 |
| 20260831034206 | 57 | 135 | 1.0 | 1.0 | 0.00 | 0.00 | 0.04 | 86 | 1000.5 |
| 20260831033906 | 57 | 90 | 0.0 | 0.0 | 0.00 | 0.00 | 0.04 | 86 | 1000.5 |
| 20260831033306 | 57 | 135 | 0.0 | 0.0 | 0.00 | 0.00 | 0.04 | 86 | 1000.5 |
| 20260831033006 | 57 | 135 | 0.0 | 0.0 | 0.00 | 0.00 | 0.02 | 86 | 1000.5 |
| 20260831032705 | 58 | 180 | 1.0 | 1.0 | 0.00 | 0.00 | 0.02 | 86 | 1000.8 |
| 20260831032405 | 58 | 270 | 1.0 | 1.0 | 0.00 | 0.00 | 0.02 | 85 | 1000.8 |
| 20260831032106 | 57 | 337 | 0.0 | 0.0 | 0.00 | 0.00 | 0.02 | 85 | 1000.8 |
| 20260831031506 | 58 | 337 | 0.0 | 0.0 | 0.00 | 0.00 | 0.00 | 85 | 1000.5 |
| 20260831031206 | 58 | 315 | 1.0 | 1.0 | 0.00 | 0.00 | 0.00 | 85 | 1000.5 |
| 20260831030906 | 58 | 0 | 2.0 | 2.0 | 0.00 | 0.00 | 0.00 | 86 | 1000.8 |
| 20260831030605 | 57 | 337 | 3.0 | 3.0 | 0.00 | 0.00 | 0.00 | 84 | 1000.8 |
| 20260831030306 | 57 | 315 | 3.0 | 3.0 | 0.00 | 0.00 | 0.00 | 84 | 1000.8 |
| 20260831030006 | 57 | 315 | 2.0 | 2.0 | 0.00 | 0.00 | 0.00 | 84 | 1000.8 |
| 20260831025706 | 57 | 315 | 5.0 | 5.0 | 0.00 | 0.00 | 0.00 | 85 | 1000.8 |
| 20260831025405 | 57 | 315 | 4.0 | 4.0 | 0.00 | 0.00 | 0.00 | 84 | 1000.5 |
| 20260831025105 | 57 | 0 | 3.0 | 3.0 | 0.00 | 0.00 | 0.00 | 83 | 1000.5 |
| 20260831024806 | 56 | 270 | 0.0 | 0.0 | 0.00 | 0.00 | 0.00 | 83 | 1000.5 |
| 20260831024205 | 55 | 270 | 1.0 | 1.0 | 0.00 | 0.00 | 0.00 | 82 | 1000.3 |
| 20260831023905 | 55 | 0 | 0.0 | 0.0 | 0.00 | 0.00 | 0.00 | 81 | 1000.3 |
| 20260831023606 | 55 | 0 | 0.0 | 0.0 | 0.00 | 0.00 | 0.00 | 82 | 1000.0 |
| 20260831023306 | 55 | 0 | 0.0 | 0.0 | 0.00 | 0.00 | 0.00 | 82 | 1000.3 |
| 20260831023005 | 55 | 0 | 0.0 | 0.0 | 0.00 | 0.00 | 0.00 | 82 | 1000.3 |
| 20260831022405 | 55 | 0 | 0.0 | 0.0 | 0.00 | 0.00 | 0.00 | 82 | 1000.0 |
| 20260831022106 | 55 | 0 | 2.0 | 2.0 | 0.00 | 0.00 | 0.00 | 82 | 1000.0 |
| 20260831021805 | 55 | 0 | 1.0 | 1.0 | 0.00 | 0.00 | 0.00 | 82 | 1000.0 |
| 20260831021507 | 55 | 180 | 0.0 | 0.0 | 0.00 | 0.00 | 0.00 | 82 | 1000.0 |
| 20260831020906 | 55 | 180 | 1.0 | 1.0 | 0.00 | 0.00 | 0.00 | 81 | 1000.0 |
| 20260831020605 | 54 | 337 | 0.0 | 0.0 | 0.00 | 0.00 | 0.00 | 81 | 1000.0 |
| 20260831020306 | 54 | 0 | 0.0 | 0.0 | 0.00 | 0.00 | 0.00 | 81 | 999.8 |
| 20260831020005 | 54 | 0 | 0.0 | 0.0 | 0.00 | 0.00 | 0.00 | 81 | 999.8 |
| 20260831015709 | 54 | 0 | 0.0 | 0.0 | 0.00 | 0.00 | 0.00 | 81 | 999.8 |
| 20260831015405 | 54 | 337 | 0.0 | 0.0 | 0.00 | 0.00 | 0.00 | 81 | 1000.0 |
| 20260831015105 | 54 | 0 | 0.0 | 0.0 | 0.00 | 0.00 | 0.00 | 81 | 1000.0 |
| 20260831014806 | 54 | 0 | 0.0 | 0.0 | 0.00 | 0.00 | 0.00 | 81 | 1000.0 |
| 20260831014506 | 54 | 0 | 0.0 | 0.0 | 0.00 | 0.00 | 0.00 | 81 | 1000.3 |
| 20260831014205 | 54 | 0 | 0.0 | 0.0 | 0.00 | 0.00 | 0.00 | 80 | 1000.3 |
| 20260831013606 | 53 | 337 | 0.0 | 0.0 | 0.00 | 0.00 | 0.00 | 80 | 1000.3 |
| 20260831013305 | 53 | 337 | 0.0 | 0.0 | 0.00 | 0.00 | 0.00 | 80 | 1000.3 |
| 20260831013005 | 53 | 337 | 0.0 | 0.0 | 0.00 | 0.00 | 0.00 | 80 | 1000.3 |
| 20260831012706 | 53 | 337 | 0.0 | 0.0 | 0.00 | 0.00 | 0.00 | 81 | 1000.3 |
| 20260831012405 | 53 | 337 | 0.0 | 0.0 | 0.00 | 0.00 | 0.00 | 80 | 1000.5 |
| 20260831011805 | 53 | 315 | 0.0 | 0.0 | 0.00 | 0.00 | 0.00 | 79 | 1000.5 |
| 20260831011505 | 53 | 337 | 0.0 | 0.0 | 0.00 | 0.00 | 0.00 | 79 | 1000.8 |
| 20260831011206 | 53 | 337 | 0.0 | 0.0 | 0.00 | 0.00 | 0.00 | 80 | 1000.5 |
| 20260831010906 | 53 | 90 | 0.0 | 0.0 | 0.00 | 0.00 | 0.00 | 80 | 1000.5 |
| 20260831010306 | 53 | 90 | 0.0 | 0.0 | 0.00 | 0.00 | 0.00 | 79 | 1000.5 |
| 20260831010005 | 53 | 90 | 0.0 | 0.0 | 0.00 | 0.00 | 0.00 | 79 | 1000.5 |
| 20260831005706 | 53 | 90 | 0.0 | 0.0 | 0.00 | 0.00 | 0.00 | 79 | 1000.8 |
| 20260831005106 | 52 | 90 | 0.0 | 0.0 | 0.00 | 0.00 | 0.00 | 78 | 1000.8 |
| 20260831004807 | 52 | 337 | 0.0 | 0.0 | 0.00 | 0.00 | 0.00 | 78 | 1000.8 |
| 20260831004506 | 52 | 90 | 0.0 | 0.0 | 0.00 | 0.00 | 0.00 | 78 | 1000.8 |
| 20260831004206 | 52 | 90 | 0.0 | 0.0 | 0.00 | 0.00 | 0.00 | 78 | 1000.8 |
| 20260831003905 | 52 | 90 | 0.0 | 0.0 | 0.00 | 0.00 | 0.00 | 78 | 1001.0 |
| 20260831003606 | 52 | 90 | 0.0 | 0.0 | 0.00 | 0.00 | 0.00 | 78 | 1000.8 |
| 20260831003308 | 52 | 90 | 0.0 | 0.0 | 0.00 | 0.00 | 0.00 | 78 | 1001.0 |
| 20260831003006 | 52 | 90 | 0.0 | 0.0 | 0.00 | 0.00 | 0.00 | 77 | 1001.3 |
| 20260831002705 | 52 | 337 | 0.0 | 0.0 | 0.00 | 0.00 | 0.00 | 78 | 1001.3 |
| 20260831002406 | 52 | 337 | 0.0 | 0.0 | 0.00 | 0.00 | 0.00 | 77 | 1001.3 |
| 20260831002108 | 52 | 202 | 0.0 | 0.0 | 0.00 | 0.00 | 0.00 | 77 | 1001.3 |
| 20260831001805 | 52 | 202 | 0.0 | 0.0 | 0.00 | 0.00 | 0.00 | 77 | 1001.3 |
| 20260831001506 | 52 | 337 | 0.0 | 0.0 | 0.00 | 0.00 | 0.00 | 78 | 1001.3 |
| 20260831001206 | 53 | 202 | 0.0 | 0.0 | 0.00 | 0.00 | 0.00 | 78 | 1001.3 |
| 20260831000606 | 52 | 202 | 0.0 | 0.0 | 0.00 | 0.00 | 0.00 | 77 | 1001.3 |
| 20260831000306 | 52 | 225 | 0.0 | 0.0 | 0.00 | 0.00 | 0.00 | 77 | 1001.3 |
| 20260831000006 | 52 | 225 | 0.0 | 0.0 | 0.00 | 0.00 | 0.00 | 76 | 1001.3 |
| 20260830235706 | 52 | 225 | 0.0 | 0.0 | 0.00 | 0.00 | 0.00 | 76 | 1001.3 |
| 20260830235106 | 52 | 202 | 0.0 | 0.0 | 0.00 | 0.00 | 0.00 | 77 | 1001.3 |
| 20260830234806 | 52 | 202 | 0.0 | 0.0 | 0.00 | 0.00 | 0.00 | 77 | 1001.3 |